Terug naar catalogus

ARKTIKA-M 2

ActiefWeerHEO
NORAD 58584·PAYLOAD·🇷🇺 Russia

Gelanceerd Dec 16, 2023 vanaf Baikonur Cosmodrome

Loading…

Volgende Passages (komende 24 uur)

TLE

VerouderdSource: Space-Track

Epoch: Aug 18, 2026, 01:47 UTC

1 58584U 23198A   26230.07438780  .00000056  00000-0  00000-0 0  9994
2 58584  63.2129 147.3319 6901614 267.6403  18.7125  2.00593343 19562

Volg ARKTIKA-M 2 in realtime met AllMySat

Download on the App Store